DELTA 1 DEB, 7183

Orbit data source: Space-Track

DELTA 1 DEB, 7183 is space debris in SSO originally from a launch on Tue, 06 Nov 1973 UTC launched from the Air Force Western Test Range (AFWTR). Debris objects in space refer to the collection of defunct objects orbiting the Earth. Examples of debris include non-operational satellites, rocket bodies, and fragments generated from explosions, collisions, or faulty payload assembly.

Loading next visibility...
Identifier
7183, 1973-086EU
Orbit
SSO
Country
Flag of USUS
Related business
Manufacturer
Unknown
Mission
Spacecraft
Bus & Motor
Unknown
Mass
Unknown
Launch date (UTC)
1973-11-06 (53 years ago)
Launch vehicle
Unknown
Launch site
Air Force Western Test Range (AFWTR)
Object type
Payload
Rocket body
Debris
Shape & HBR
Unknown shape, 0.1 m
Radar Cross Section
Medium (>0.1 m² and <1 m²)

Expand to show TLE details & history
Last TLE update: 3 days ago

TLE from 3 days ago
0 DELTA 1 DEB
1 07183U 73086EU  26170.62075814  .00000267  00000-0  15547-2 0  9991
2 07183 102.3853 203.0054 0120729 255.7051 231.3061 12.70158291424971
Epoch: 2026-06-19T14:53Z
TLE epoch observation values (Epoch: 2026-06-19T14:53:53.503Z)
Latitude
52.35303°
Longitude
-91.85922°
Altitude
1,448.815 km
Speed
7.115 km/s
True Right ascension
02h 37m 50s
True Declination
52° 12' 05"
Sunlit
Object was in daylight at epoch
Visualization orbit readout
Latitude
Unknown
Longitude
Unknown
Altitude
Unknown
Speed
Unknown
Apparent Right ascension
Unknown
Apparent Declination
Unknown
Sunlit
N/A
Visualization observer readout
Local Sidereal Time
00:50:12
Azimuth
Unknown
Elevation
Unknown
Doppler factor
Unknown
Orbital elements
Apogee altitude
1,472.503 km
Perigee altitude
1,285.204 km
Semi-major axis
7,756.991 km
Eccentricity
0.01207
Inclination
102.3853°
RAAN
203.0054°
Arg. of periapsis
255.7051°
True anomaly
230.23648°
Mean anomaly
231.3061°
Eccentric anomaly
230.77028°
Mean motion
3.1769 °/min
Orbital period
113.32 mins
BSTAR
0.0015547
Loading maneuver chart data...
Computing Atmospheric mass density...
Loading historical data...
Loading historical data...
Loading historical data...
Loading historical data...
Loading historical data...
Loading historical data...
Loading historical data...

Documentation

Showing up to 5 results
|